West Palm Beach, FL (33401)

9:56 PM EDT on April 26, 2017 (GMT -0400)
Downtown | | Change Station

Elev 0 ft 26.71 °N, 80.05 °W | Updated 4 minutes ago

Partly Cloudy
Partly Cloudy
77.9 °F
Feels Like 80 °F
N
3.1
Wind Variable Wind from SW
Gusts 7.5 mph

Today
High -- | Low -- °F
--% Chance of Precip.
Yesterday
High -- | Low -- °F
Precip. -- in
Pressure 29.92 in
Visibility 10.0 miles
Clouds Mostly Cloudy 8500 ft
Heat Index 80 °F
Dew Point 70 °F
Humidity 75%
Rainfall Not available.
Snow Depth Not available.
6:46 AM 7:50 PM
New Moon, 0% visible
METAR KPBI 270153Z 14009KT 10SM BKN085 26/20 A2992 RMK AO2 SLP132 T02560200 $
Pressure 29.92 in
Visibility 10.0 miles
Clouds Mostly Cloudy 8500 ft
Heat Index 80 °F
Dew Point 70 °F
Humidity 75%
Rainfall Not available.
Snow Depth Not available.
6:46 AM 7:50 PM
New Moon, 0% visible
METAR KPBI 270153Z 14009KT 10SM BKN085 26/20 A2992 RMK AO2 SLP132 T02560200 $

Get Severe Weather Alerts

Thanks for signing up!

Be on the lookout for a verification email in your inbox.

You'll start receiving the daily forecast at 8 AM.

×

10-Day Weather Forecast

Almanac

Astronomy

Apr. 26, 2017 Rise Set
Actual Time
Civil Twilight
Nautical Twilight
Astronomical Twilight
Moon
Length of Visible Light
Length of Day
Tomorrow will be .
, % of the Moon is Illuminated

Today's Extremes

State Highs State Lows

Community

WunderPhotos

WunderBlog® & News

Nearby

Air Quality

  Air Quality AQ Index Pollutant
Not available.

Snow Depth

Station Depth Elevation

Earthquake Activity

City Distance Mag. Time & Date
Minimum magnitude displayed is 2.5.

Coastal Water Temperatures

Place Temperature

Stations

Nearby Weather Stations

Station Location Temp. Windchill Dew Point Humidity Wind Precip. Elev Updated Type
                   

Watches & Warnings

There are currently no watches in effect.